Regional Weather Roundup
Issued by NWS Portland, ME

Home | Current Version | Previous Version | Text Only | Print | Product List | Glossary On
Versions: 1 2 3 4 5 6 7 8 9 10 11 12 13 14 15 16 17 18 19 20 21 22 23 24 25 26 27 28 29 30 31 32 33 34 35 36 37 38 39 40 41 42 43 44 45 46 47 48 49 50
853
ASUS41 KGYX 230410
RWRGYX
WEATHER ROUNDUP FOR MAINE AND NEW HAMPSHIRE
NATIONAL WEATHER SERVICE GRAY ME
1100 PM EST MON JAN 22 2018

MEZ002-005-006-010-012-015-018-020-021-024-026-027-029-230500-
MAINE

CITY           SKY/WX    TMP DP  RH WIND       PRES   REMARKS
PORTLAND       LGT SNOW  22  20  92 N9        30.27F FOG
SANFORD        MIX PCPN  23  21  92 N12       30.24F WCI  12
BAR HARBOR     LGT SNOW  20  16  84 NE6       30.35S VSB 1
WISCASSET      LGT SNOW  21  19  92 VRB3      30.29F VSB 1
ROCKLAND       LGT SNOW  24  22  91 NE13G20   30.28F VSB 3/4 WCI  12
FRYEBURG       LGT SNOW  22  22 100 NE3       30.27F VSB 1
LEWISTONAUBURN MIX PCPN  19  18  93 N9        30.28F FOG
AUGUSTA        MIX PCPN  19  16  88 N9        30.28F FOG
WATERVILLE     LGT SNOW  18  16  93 NE10      30.25F VSB 1   WCI   6
BANGOR         LGT SNOW  19  16  88 NE8       30.35S VSB 1
GREENVILLE       N/A     13  11  92 SE12      30.21F WCI  -1
MILLINOCKET    LGT SNOW  17  13  84 E8        30.37F VSB 3/4
HOULTON        CLOUDY    13   1  59 NE3       30.36S
PRESQUE ISLE   CLOUDY    11   1  64 SW5       30.38S
FRENCHVILLE    CLOUDY     7  -3  64 N3        30.32S
CARIBOU        CLOUDY    11  -3  53 CALM      30.36R
$$

NHZ002-005-008-009-011-012-014-230500-
NEW HAMPSHIRE

CITY           SKY/WX    TMP DP  RH WIND       PRES   REMARKS
PORTSMOUTH     FRZ RAIN  28  27  94 NE5       30.20F FOG
ROCHESTER      CLOUDY    24  23  96 N9        30.22F
NASHUA         LGT SNOW  28  28 100 N6        30.20F FOG
MANCHESTER     FRZ RAIN  28  26  92 N7        30.20S FOG
CONCORD        FRZ RAIN  27  24  89 N6        30.20F FOG
LACONIA        MIX PCPN  24  22  91 E12       30.21F WCI  13
PLYMOUTH       CLOUDY    26  25  94 CALM      30.21F
BERLIN         FLURRIES  26  20  77 SE16G23   30.14F WCI  14
WHITEFIELD     FRZ RAIN  34  26  72 S14G26    30.07F
JAFFREY        CLOUDY    29  28  96 VRB3      30.13F FOG
KEENE          CLOUDY    30  27  88 NE6       30.16F
LEBANON        CLOUDY    31  27  85 CALM      30.15F
MT WASHINGTON  SNOWSHWR  18  18 100 S40G49      N/A  VSB 0   WCI  -4
$$

VTZ005-007-008-230500-
VERMONT

CITY           SKY/WX    TMP DP  RH WIND       PRES   REMARKS
ST JOHNSBURY     N/A     30  29  96 MISG      30.09F
MONTPELIER     MIX PCPN  28  26  92 S12       30.11F WCI  18
BURLINGTON     CLOUDY    33  28  81 S15       30.00F
$$

MAZ007-012-024-CTZ003-RIZ002-NYZ038-NYZ072-230500-
SOUTHERN NEW ENGLAND AND NY

CITY           SKY/WX    TMP DP  RH WIND       PRES   REMARKS
BOSTON         DRIZZLE   38  38 100 E5        30.18F FOG
WORCESTER      FOG       30  29  96 NE6       30.11F VSB 1/4
NANTUCKET      CLOUDY    42  42 100 SE15      30.16F
PROVIDENCE     FOG       38  38 100 NE3       30.15F VSB 1/4
HARTFORD       DRIZZLE   34  34 100 N8        30.13F FOG
ALBANY         CLOUDY    38  34  85 S9        30.04F
NEW YORK CITY  FOG       37  35  92 NE10      30.08F VSB 1/8
$$

ANZ081-ANZ082-ANZ150-NHZ014-MEZ023>029-230500-
COASTAL MARINE OBSERVATIONS

STATION/POSITION TIME  TEMP    WIND        PRES    WAVE
                       AIR SEA DIR/SP/G            HT/PER
                 (UTC) (F)     (DEG/KT/KT) (MB)    (FT/S)
MOUNT DESERT ROC 0400   34      80/ 21/ 23 1025.7F
MATINICUS ROCK   0300   35     110/ 26/ 29 1024.3F
ISLE OF SHOALS   0300   41     110/ 14/ 16 1022.9F
JEFFREYS LEDGE   0336      43                N/A     6/ 7
GEORGES BANK BUO 0250   42 54              1029.2    4/ 6
$$

.............KEY..............
   WCI - WIND CHILL
   TC  - TEMPERATURE IN CELSIUS
   VSB - VISIBILITY IN MILES
   HX  - HEAT INDEX
   FAIR- INDICATES FEW OR NO CLOUDS BELOW 12,000 FT, WITH NO
         SIGNIFICANT WEATHER AND/OR OBSTRUCTIONS TO VISIBILITY.






USA.gov is the U.S. government's official web portal to all federal, state and local government web resources and services.